#timestamp,LO_Frequency,Hit,StdDev 
1459818015.1,286047002.7,N
1459818035.8,286047001.8,N
1459818055.7,286046999.7,N
1459818075.5,286046998.4,N
1459818095.3,286047000.1,N
1459818115.2,286047002.3,N
1459818135.9,286047000.0,N
1459818155.7,286047000.3,N
1459818175.6,286047000.2,N
1459818195.4,286046999.9,N
1459818215.2,286047000.3,N
1459818235.1,286046999.0,N
1459818236.0,286046999.0,N
1459818255.8,286047000.8,N
1459818275.6,286047000.6,N
1459818295.4,286046999.1,N
1459818315.3,286046998.2,N
1459818335.1,286046998.1,N
1459818355.8,286046998.6,N
1459818375.7,286047000.4,N
1459818395.5,286046998.6,N
1459818415.3,286046999.0,N
1459818435.2,286046999.2,N
1459818455.9,286046998.7,N
1459818475.7,286046999.1,N
1459818495.6,286046997.0,N
1459818515.4,286046999.2,N
1459818535.2,286046997.4,N
1459818555.1,286046998.5,N
1459818556.0,286046998.5,N
1459818575.8,286046998.1,N
1459818595.6,286047000.6,N
1459818615.5,286046998.4,N
1459818635.3,286047000.8,N
1459818655.1,286046998.4,N
1459818675.8,286046998.1,N
1459818695.7,286046999.1,N
1459818715.5,286046999.1,N
1459818735.3,286047000.4,N
1459818755.2,286047002.5,N
1459818775.0,286047002.0,N
1459818775.9,286047002.0,N
1459818795.7,286047000.6,N
1459818815.6,286047000.9,N
1459818835.4,286046996.9,N
1459818855.2,286046999.1,N
1459818875.1,286046998.6,N
1459818876.0,286046998.6,N
1459818895.8,286046999.1,N
1459818915.6,286046995.4,Y
1459818935.5,286046994.9,P
1459818955.3,286046999.6,N
1459818975.1,286046995.4,N
1459818995.9,286046999.5,N
1459819015.7,286046997.5,N
1459819035.5,286046996.7,N
1459819055.4,286046997.1,N
1459819075.2,286046997.1,N
1459819095.0,286046997.4,N
1459819095.9,286046997.4,N
1459819115.8,286046998.8,N
1459819135.6,286046999.5,N
1459819155.4,286046998.4,N
1459819175.2,286046996.5,N
1459819195.1,286046996.8,N
1459819196.0,286046996.8,N
1459819215.8,286046998.9,N
1459819235.6,286046998.7,N
1459819255.5,286046997.0,N
1459819275.3,286046995.3,Y
1459819295.1,286046996.8,P
1459819315.9,286046999.3,N
1459819335.7,286046999.1,N
1459819355.5,286046999.5,N
1459819375.4,286047001.1,N
1459819395.2,286047001.9,N
1459819415.0,286047002.6,N
1459819415.9,286047002.6,N
1459819435.8,286046999.8,N
1459819455.6,286047003.7,N
1459819475.4,286047005.0,N
1459819495.2,286047005.4,N
1459819515.1,286047005.0,N
1459819516.0,286047005.0,N
1459819535.8,286047003.7,N
1459819555.6,286047002.5,N
1459819575.5,286047002.6,N
1459819595.3,286047004.0,N
1459819615.1,286046999.9,N
1459819635.9,286047000.3,N
1459819655.7,286046999.8,N
1459819675.5,286047002.2,N
1459819695.4,286047000.0,N
1459819715.2,286047002.4,N
1459819735.0,286047000.2,N
1459819735.9,286047000.2,N
1459819755.8,286046999.0,N
1459819775.6,286046996.8,N
1459819795.4,286047000.6,N
1459819815.3,286047000.3,N
1459819835.1,286046997.0,N
1459819836.0,286046997.0,N
1459819855.8,286046997.2,N
1459819875.7,286046995.8,N
1459819895.5,286046995.9,N
1459819915.3,286046996.0,N
1459819935.1,286046993.7,N
1459819955.9,286046992.6,N
1459819975.7,286046994.3,N
1459819995.5,286046994.3,N
1459820015.4,286046992.2,N
1459820035.2,286046990.2,N
1459820055.0,286046992.1,N
1459820055.9,286046992.1,N
1459820075.8,286046992.8,N
1459820095.6,286046992.8,N
1459820115.4,286046994.8,N
1459820135.3,286046992.0,N
1459820155.1,286046994.8,N
1459820156.0,286046994.8,N
1459820175.8,286046994.8,N
1459820195.7,286046991.7,N
1459820215.5,286046994.8,N
1459820235.3,286046996.4,N
1459820255.2,286046993.7,N
1459820275.9,286046997.1,N
1459820295.7,286046996.9,N
1459820315.6,286046997.8,N
1459820335.4,286046995.1,N
1459820355.2,286046997.7,N
1459820375.0,286046996.5,N
1459820376.0,286046996.5,N
1459820395.8,286046997.1,N
1459820415.6,286046999.5,N
1459820435.4,286046999.5,N
1459820455.3,286047000.7,N
1459820475.1,286046999.8,N
1459820495.8,286047004.3,N
1459820515.7,286047000.6,N
1459820535.5,286047000.5,N
1459820555.3,286047001.1,N
1459820575.2,286047001.6,N
1459820595.9,286047000.8,N
1459820615.7,286047000.7,N
1459820635.6,286047001.1,N
1459820655.4,286047000.8,N
1459820675.2,286047001.2,N
1459820695.1,286047000.6,N
1459820696.0,286047000.6,N
1459820715.8,286047002.3,N
1459820735.6,286047002.8,N
1459820755.5,286046999.9,N
1459820775.3,286046999.7,N
1459820795.1,286046998.9,N
1459820815.8,286046998.9,N
1459820835.7,286046999.2,N
1459820855.5,286047000.0,N
1459820875.3,286047000.3,N
1459820895.2,286047000.0,N
1459820915.9,286046998.1,N
1459820935.7,286046998.6,N
1459820955.6,286046999.7,N
1459820975.4,286046998.7,N
1459820995.2,286046998.6,N
1459821015.1,286047000.4,N
1459821016.0,286047000.4,N
1459821035.8,286046999.5,N
1459821055.6,286046999.3,N
1459821075.5,286046999.6,N
1459821095.3,286047002.8,N
1459821115.1,286047004.1,Y
1459821135.9,286047002.0,P
1459821155.7,286047004.3,P
1459821175.5,286047002.3,N
1459821195.3,286046998.6,N
1459821215.2,286046998.9,N
1459821235.0,286046998.2,N
1459821235.9,286046998.2,N
1459821255.7,286046998.8,N
1459821275.6,286046999.8,N
1459821295.4,286047002.7,N
1459821315.2,286047000.2,N
1459821335.1,286047002.5,N
1459821336.0,286047002.5,N
1459821355.8,286047001.4,N
1459821375.6,286047001.5,N
1459821395.5,286047000.3,N
1459821415.3,286047000.8,N
1459821435.1,286046996.9,N
1459821455.9,286046996.5,N
1459821475.7,286046999.3,N
1459821495.5,286046999.4,N
1459821515.3,286047000.7,N
1459821535.2,286046998.1,N
1459821555.0,286046999.0,N
1459821555.9,286046999.0,N
1459821575.7,286046996.6,N
1459821595.6,286047001.2,N
